星链-34447 (STARLINK-34447)

导读 | 豆包AI

STARLINK-34447是美国SpaceX公司于2025年6月28日发射的星链系列低轨互联网卫星,运行于近地轨道,属于SpaceX构建全球卫星互联网星座的组成部分。它配备高性能天线与太阳能供电系统,支持Ku/Ka频段通信,可为全球网络基础设施匮乏区域提供高速、低延迟的宽带互联网服务,进一步完善星链星座的全球覆盖能力。

基本信息
目录编号:
64710
目录名称:
STARLINK-34447
国际标识:
2025-142Q
轨道中心:
EARTH
卫星名称:
星链-34447
卫星全名:
星链-34447 (STARLINK-34447)
卫星状态:
在轨 (已飞行259 天)
发射日期:
2025-06-28 UTC
国别 :
美国 (US)
星等 :
--
轨道信息
数据来源 国际轨道数据
星历时间: 2026-03-14T06:05:09+0800
17小时前
查看轨道信息
半长轴: 6950.17km
偏心率: 0.0002783
轨道倾角: 70.000°
近地点辐角 271.009°
升交点赤经 303.786°
平近点角 89.076°
近地点: 570.098km
远地点: 573.968km
周期: 96.107分钟
每日圈数: 14.983377
详细信息
固有亮度:
5
最大亮度:
2.5
卫星平台:
Starlink V1.0
覆盖范围:
全球
运营商:
太空探索技术公司
运营商所在国:
美国
制造商(研发单位):
太空探索技术公司
制造商所在国:
美国
使用方式:
暂无
卫星简介
Starlink 计划是 SpaceX 推出的全球卫星互联网项目,通过发射低轨道卫星,为全球尤其是偏远地区提供高速、低延迟的互联网服务。自 2019 年起,Starlink 已部署数千颗卫星,旨在缩小全球数字鸿沟,推动互联网普及。该项目还为军事、航空等行业提供通信支持,带来广泛经济效益。
2D轨道图
3D轨道图
轨道高度分析图
轨道倾角分析图
轨道综合分析图
查看轨道综合分析图